DELTA 1 DEB, 42636

Orbit data source: Space-Track

DELTA 1 DEB, 42636 is space debris in SSO originally from a launch on Thu, 12 Jun 1975 UTC launched from the Air Force Western Test Range (AFWTR). Debris objects in space refer to the collection of defunct objects orbiting the Earth. Examples of debris include non-operational satellites, rocket bodies, and fragments generated from explosions, collisions, or faulty payload assembly.

Loading next visibility...
Identifier
42636, 1975-052LV
Orbit
SSO
Last TLE update
1 day ago
Origin
Manufacturer
Unknown
Mission
Spacecraft
Bus & Motor
Unknown
Mass
Unknown
Launch date (UTC)
1975-06-12 (50 years ago)
Launch vehicle
Unknown
Launch site
Air Force Western Test Range (AFWTR)
Object type
Payload
Rocket body
Debris
Shape & HBR
Unknown
Radar Cross Section
Small (<0.1 m²)

Expand to show TLE details & history

TLE from 1 day ago
0 DELTA 1 DEB
1 42636U 75052LV  25185.31840064  .00000201  00000-0  55882-3 0  9991
2 42636  99.6968  33.8638 0129551 268.7819 272.6907 13.22041218559999
Epoch: 2025-07-04T07:38Z
TLE epoch observation values (Epoch: 2025-07-04T07:38:29.815Z)
Latitude
-0.09976°
Longitude
176.6501°
Altitude
1,176.365 km
Speed
7.267 km/s
True Right ascension
14h 15m 23s
True Declination
0° 05' 57"
Sunlit
Object was in daylight at epoch
Visualization orbit readout
Latitude
34.62719°
Longitude
-8.77136°
Altitude
1,243.126 km
Speed
7.207 km/s
Apparent Right ascension
22h 34m 05s
Apparent Declination
2° 44' 05"
Sunlit
Object is in daylight
Visualization observer readout
Local Sidereal Time
05:19:46
Azimuth
279.481° WNW
Elevation
-6.955°
Doppler factor
1
Orbital elements
Apogee altitude
1,272.114 km
Perigee altitude
1,076.429 km
Semi-major axis
7,552.408 km
Eccentricity
0.01296
Inclination
99.6968°
RAAN
33.8638°
Arg. of periapsis
268.7819°
True anomaly
Unknown
Mean anomaly
272.6907°
Eccentric anomaly
Unknown
Mean motion
3.30685 °/min
Orbital period
108.86 mins
BSTAR
0.00055882
Loading maneuver chart data...
Loading SW <> Apogee altitude chart data...
Loading historical data...
Loading historical data...
Loading historical data...
Loading historical data...
Loading historical data...
Loading historical data...
Loading historical data...

DELTA 1 DEB Visibility forecast

Observer location: undefined°, undefined°

Span
Click to sort rows by Start time (UTC) header in descending order
Start Az.
Max El. time (UTC)
Max El. Az.
Max El.
End time (UTC)
End Az.
8 mins2025-07-06 01:09:24.352Z54.739° ENE2025-07-06 01:13:24.352Z89.334° E15.9°2025-07-06 01:17:24.352Z124.186° SE
13 mins2025-07-06 02:55:24.352Z13.593° NNE2025-07-06 03:01:24.352Z313.493° NW44.911°2025-07-06 03:08:24.352Z198.946° SSW
7 mins2025-07-06 04:44:24.352Z335.046° NNW2025-07-06 04:47:24.352Z308.419° NW16.86°2025-07-06 04:51:24.352Z272.465° WNW
13 mins2025-07-06 13:19:24.352Z145.171° SSE2025-07-06 13:25:24.352Z67.314° ENE41.281°2025-07-06 13:32:24.352Z352.542° N
10 mins2025-07-06 15:08:24.352Z220.596° SW2025-07-06 15:13:24.352Z271.48° WNW23.366°2025-07-06 15:18:24.352Z317.41° NNW
|